COSMOS 1823 DEB, 18752

Orbit data source: Space-Track

COSMOS 1823 DEB, 18752 is space debris in LEO originally from a launch on Fri, 20 Feb 1987 UTC launched from the Plesetsk Missile And Space Complex (PKMTR). Debris objects in space refer to the collection of defunct objects orbiting the Earth. Examples of debris include non-operational satellites, rocket bodies, and fragments generated from explosions, collisions, or faulty payload assembly.

Loading next visibility...
Identifier
18752, 1987-020AD
Orbit
LEO
Country
Flag of CISCIS
Related business
Manufacturer
Unknown
Mission
Spacecraft
Bus & Motor
Unknown
Mass
Unknown
Launch date (UTC)
1987-02-20 (39 years ago)
Launch vehicle
Unknown
Launch site
Plesetsk Missile And Space Complex (PKMTR)
Object type
Payload
Rocket body
Debris
Shape & HBR
Unknown shape, 0.1 m
Radar Cross Section
Medium (>0.1 m² and <1 m²)

Expand to show TLE details & history
Last TLE update: 3 days ago

TLE from 3 days ago
0 COSMOS 1823 DEB
1 18752U 87020AD  26171.36811499  .00000026  00000-0  24576-3 0  9993
2 18752  73.9194 130.3388 0062513 305.6798 211.6397 12.60392396769865
Epoch: 2026-06-20T08:50Z
TLE epoch observation values (Epoch: 2026-06-20T08:50:05.135Z)
Latitude
22.12169°
Longitude
-97.46261°
Altitude
1,465.126 km
Speed
7.113 km/s
True Right ascension
20h 14m 34s
True Declination
22° 00' 46"
Sunlit
Object was in daylight at epoch
Visualization orbit readout
Latitude
Unknown
Longitude
Unknown
Altitude
Unknown
Speed
Unknown
Apparent Right ascension
Unknown
Apparent Declination
Unknown
Sunlit
N/A
Visualization observer readout
Local Sidereal Time
08:08:48
Azimuth
Unknown
Elevation
Unknown
Doppler factor
Unknown
Orbital elements
Apogee altitude
1,467.9 km
Perigee altitude
1,370.414 km
Semi-major axis
7,797.294 km
Eccentricity
0.00625
Inclination
73.9194°
RAAN
130.3388°
Arg. of periapsis
305.6798°
True anomaly
211.26641°
Mean anomaly
211.6397°
Eccentric anomaly
211.45281°
Mean motion
3.1523 °/min
Orbital period
114.2 mins
BSTAR
0.00024576
Loading maneuver chart data...
Computing Atmospheric mass density...

Documentation

Showing up to 5 results
|